| time (UTC) | temp F | wind direction | speed MPH | gust MPH | rain 1hr in | rain 24hr in | rain mn in | humidity % | barometer mb |
| 20260906164520 | 66 | 204 | 1.0 | 5.0 | 0.00 | 0.51 | 0.41 | 60 | 1017.2 |
| 20260906163119 | 67 | 84 | 0.0 | 8.0 | 0.00 | 0.51 | 0.41 | 61 | 1017.2 |
| 20260906161519 | 66 | 253 | 2.0 | 6.0 | 0.00 | 0.51 | 0.41 | 62 | 1017.3 |
| 20260906160010 | 65 | 165 | 2.0 | 6.0 | 0.00 | 0.51 | 0.41 | 66 | 1017.5 |
| 20260906154511 | 64 | 114 | 1.0 | 7.0 | 0.00 | 0.51 | 0.41 | 63 | 1017.7 |
| 20260906153006 | 63 | 229 | 1.0 | 5.0 | 0.00 | 0.51 | 0.41 | 67 | 1017.8 |
| 20260906151504 | 63 | 294 | 1.0 | 7.0 | 0.00 | 0.51 | 0.41 | 68 | 1017.9 |
| 20260906150002 | 63 | 62 | 3.0 | 7.0 | 0.00 | 0.51 | 0.41 | 71 | 1017.6 |
| 20260906144601 | 63 | 5 | 5.0 | 14.0 | 0.00 | 0.51 | 0.41 | 68 | 1017.8 |
| 20260906143111 | 63 | 303 | 2.0 | 9.0 | 0.00 | 0.51 | 0.41 | 71 | 1017.8 |
| 20260906141554 | 61 | 235 | 0.0 | 3.0 | 0.00 | 0.51 | 0.41 | 80 | 1017.7 |
| 20260906140050 | 59 | 132 | 0.0 | 3.0 | 0.00 | 0.51 | 0.41 | 79 | 1017.6 |
| 20260906134550 | 59 | 66 | 0.0 | 0.0 | 0.00 | 0.51 | 0.41 | 79 | 1017.6 |
| 20260906133051 | 59 | 66 | 0.0 | 2.0 | 0.00 | 0.51 | 0.41 | 79 | 1017.6 |
| 20260906131548 | 60 | 344 | 0.0 | 4.0 | 0.00 | 0.51 | 0.41 | 80 | 1017.6 |
| 20260906130045 | 59 | 59 | 0.0 | 2.0 | 0.00 | 0.51 | 0.41 | 81 | 1017.5 |
| 20260906124544 | 59 | 57 | 0.0 | 4.0 | 0.00 | 0.51 | 0.41 | 81 | 1017.5 |
| 20260906123042 | 58 | 36 | 0.0 | 4.0 | 0.00 | 0.51 | 0.41 | 82 | 1017.5 |
| 20260906121538 | 58 | 204 | 0.0 | 1.0 | 0.00 | 0.51 | 0.41 | 82 | 1017.2 |
| 20260906120040 | 58 | 204 | 0.0 | 0.0 | 0.00 | 0.51 | 0.41 | 82 | 1017.2 |
| 20260906114537 | 57 | 204 | 0.0 | 0.0 | 0.02 | 0.51 | 0.41 | 82 | 1017.1 |
| 20260906113041 | 57 | 204 | 0.0 | 0.0 | 0.03 | 0.51 | 0.41 | 82 | 1017.0 |
| 20260906111535 | 57 | 204 | 0.0 | 0.0 | 0.03 | 0.51 | 0.41 | 82 | 1017.0 |
| 20260906110030 | 57 | 204 | 0.0 | 0.0 | 0.04 | 0.51 | 0.41 | 82 | 1016.8 |
| 20260906104535 | 56 | 204 | 0.0 | 0.0 | 0.02 | 0.49 | 0.39 | 82 | 1016.7 |
| 20260906103025 | 56 | 204 | 0.0 | 0.0 | 0.01 | 0.48 | 0.38 | 82 | 1016.4 |
| 20260906101524 | 56 | 204 | 0.0 | 0.0 | 0.07 | 0.48 | 0.38 | 82 | 1016.5 |
| 20260906100021 | 56 | 204 | 0.0 | 0.0 | 0.12 | 0.47 | 0.37 | 82 | 1016.3 |
| 20260906094534 | 56 | 204 | 0.0 | 0.0 | 0.14 | 0.47 | 0.37 | 82 | 1016.2 |
| 20260906093032 | 56 | 204 | 0.0 | 0.0 | 0.16 | 0.47 | 0.37 | 82 | 1016.0 |
| 20260906091519 | 57 | 204 | 0.0 | 2.0 | 0.12 | 0.41 | 0.31 | 82 | 1016.0 |
| 20260906090016 | 57 | 204 | 0.0 | 0.0 | 0.08 | 0.35 | 0.25 | 82 | 1015.8 |
| 20260906084519 | 57 | 204 | 0.0 | 0.0 | 0.07 | 0.33 | 0.23 | 82 | 1015.7 |
| 20260906083017 | 57 | 204 | 0.0 | 1.0 | 0.07 | 0.31 | 0.21 | 82 | 1015.7 |
| 20260906081514 | 57 | 204 | 0.0 | 0.0 | 0.06 | 0.28 | 0.19 | 82 | 1015.5 |
| 20260906080016 | 57 | 204 | 0.0 | 0.0 | 0.04 | 0.27 | 0.17 | 82 | 1015.5 |
| 20260906074511 | 57 | 204 | 0.0 | 1.0 | 0.04 | 0.26 | 0.16 | 82 | 1015.5 |
| 20260906073009 | 57 | 204 | 0.0 | 2.0 | 0.04 | 0.24 | 0.14 | 82 | 1015.5 |
| 20260906071508 | 58 | 204 | 0.0 | 3.0 | 0.04 | 0.23 | 0.13 | 81 | 1015.4 |
| 20260906070006 | 58 | 273 | 0.0 | 2.0 | 0.04 | 0.23 | 0.13 | 81 | 1015.4 |
| 20260906064505 | 58 | 355 | 0.0 | 1.0 | 0.03 | 0.22 | 0.12 | 82 | 1015.2 |
| 20260906063005 | 58 | 355 | 0.0 | 0.0 | 0.01 | 0.20 | 0.10 | 82 | 1015.4 |
| 20260906061505 | 58 | 355 | 0.0 | 0.0 | 0.02 | 0.19 | 0.09 | 82 | 1015.3 |
| 20260906060004 | 58 | 355 | 0.0 | 0.0 | 0.06 | 0.19 | 0.09 | 82 | 1015.3 |
| 20260906054506 | 58 | 355 | 0.0 | 0.0 | 0.06 | 0.19 | 0.09 | 82 | 1015.4 |
| 20260906053002 | 58 | 355 | 0.0 | 0.0 | 0.06 | 0.19 | 0.09 | 82 | 1015.1 |
| 20260906051501 | 58 | 355 | 0.0 | 0.0 | 0.06 | 0.17 | 0.07 | 81 | 1015.2 |
| 20260906050059 | 58 | 355 | 0.0 | 0.0 | 0.03 | 0.13 | 0.03 | 81 | 1015.3 |
| 20260906044558 | 59 | 355 | 0.0 | 0.0 | 0.03 | 0.13 | 0.03 | 81 | 1015.3 |
| 20260906043059 | 59 | 355 | 0.0 | 0.0 | 0.03 | 0.13 | 0.03 | 81 | 1015.1 |
| 20260906041600 | 59 | 355 | 0.0 | 0.0 | 0.01 | 0.11 | 0.01 | 81 | 1015.1 |
| 20260906040054 | 59 | 355 | 0.0 | 0.0 | 0.00 | 0.10 | 0.00 | 81 | 1015.2 |
| 20260906034554 | 59 | 355 | 0.0 | 0.0 | 0.00 | 0.10 | 0.10 | 81 | 1015.0 |
| 20260906033053 | 60 | 355 | 0.0 | 0.0 | 0.01 | 0.10 | 0.10 | 81 | 1015.0 |
| 20260906031551 | 60 | 355 | 0.0 | 0.0 | 0.01 | 0.10 | 0.10 | 81 | 1014.9 |
| 20260906030050 | 60 | 355 | 0.0 | 0.0 | 0.01 | 0.10 | 0.10 | 81 | 1014.9 |
| 20260906024601 | 60 | 355 | 0.0 | 0.0 | 0.01 | 0.10 | 0.10 | 81 | 1014.9 |
| 20260906023049 | 60 | 355 | 0.0 | 0.0 | 0.00 | 0.09 | 0.09 | 81 | 1014.8 |
| 20260906021550 | 60 | 355 | 0.0 | 0.0 | 0.00 | 0.09 | 0.09 | 81 | 1014.8 |
| 20260906020050 | 60 | 355 | 0.0 | 0.0 | 0.01 | 0.09 | 0.09 | 81 | 1014.9 |
| 20260906014600 | 60 | 355 | 0.0 | 0.0 | 0.02 | 0.09 | 0.09 | 81 | 1014.7 |
| 20260906013048 | 61 | 355 | 0.0 | 0.0 | 0.02 | 0.09 | 0.09 | 80 | 1014.8 |
| 20260906011548 | 61 | 355 | 0.0 | 1.0 | 0.07 | 0.09 | 0.09 | 80 | 1014.8 |
| 20260906010046 | 61 | 355 | 0.0 | 0.0 | 0.06 | 0.08 | 0.08 | 79 | 1014.7 |
| 20260906004546 | 61 | 355 | 0.0 | 1.0 | 0.05 | 0.07 | 0.07 | 77 | 1014.7 |
| 20260906003053 | 61 | 355 | 0.0 | 1.0 | 0.06 | 0.07 | 0.07 | 76 | 1014.6 |
| 20260906001545 | 62 | 360 | 0.0 | 0.0 | 0.01 | 0.02 | 0.02 | 77 | 1014.5 |
| 20260906000042 | 62 | 360 | 0.0 | 0.0 | 0.01 | 0.02 | 0.02 | 75 | 1014.3 |
| 20260905234539 | 62 | 360 | 0.0 | 0.0 | 0.02 | 0.02 | 0.02 | 73 | 1014.1 |
| 20260905233039 | 63 | 360 | 0.0 | 0.0 | 0.01 | 0.01 | 0.01 | 73 | 1014.0 |
| 20260905231540 | 63 | 360 | 0.0 | 1.0 | 0.01 | 0.01 | 0.01 | 72 | 1013.9 |
| 20260905230036 | 64 | 355 | 0.0 | 4.0 | 0.01 | 0.01 | 0.01 | 71 | 1013.8 |
| 20260905224535 | 65 | 59 | 0.0 | 7.0 | 0.00 | 0.00 | 0.00 | 69 | 1013.7 |
| 20260905223033 | 67 | 323 | 3.0 | 10.0 | 0.00 | 0.00 | 0.00 | 66 | 1013.4 |
| 20260905221534 | 68 | 84 | 1.0 | 6.0 | 0.00 | 0.00 | 0.00 | 63 | 1013.3 |
| 20260905220030 | 68 | 232 | 0.0 | 3.0 | 0.00 | 0.00 | 0.00 | 63 | 1012.9 |
| 20260905214530 | 68 | 185 | 1.0 | 4.0 | 0.00 | 0.00 | 0.00 | 63 | 1012.7 |
| 20260905213037 | 70 | 197 | 0.0 | 0.0 | 0.00 | 0.00 | 0.00 | 64 | 1012.5 |
| 20260905211528 | 71 | 202 | 0.0 | 3.0 | 0.00 | 0.00 | 0.00 | 61 | 1012.3 |
| 20260905210025 | 72 | 121 | 1.0 | 5.0 | 0.00 | 0.00 | 0.00 | 57 | 1012.1 |
| 20260905204524 | 73 | 236 | 0.0 | 3.0 | 0.00 | 0.00 | 0.00 | 59 | 1011.9 |
| 20260905203021 | 72 | 236 | 1.0 | 6.0 | 0.00 | 0.00 | 0.00 | 57 | 1012.0 |
| 20260905201519 | 71 | 208 | 1.0 | 2.0 | 0.00 | 0.00 | 0.00 | 60 | 1012.0 |
| 20260905200018 | 71 | 221 | 0.0 | 4.0 | 0.00 | 0.00 | 0.00 | 60 | 1012.1 |
| 20260905194517 | 71 | 232 | 0.0 | 4.0 | 0.00 | 0.00 | 0.00 | 57 | 1012.2 |
| 20260905193017 | 71 | 11 | 2.0 | 5.0 | 0.00 | 0.00 | 0.00 | 56 | 1012.3 |
| 20260905191517 | 71 | 313 | 1.0 | 5.0 | 0.00 | 0.00 | 0.00 | 61 | 1012.3 |
| 20260905190016 | 71 | 71 | 0.0 | 4.0 | 0.00 | 0.00 | 0.00 | 59 | 1012.3 |
| 20260905184514 | 71 | 131 | 2.0 | 9.0 | 0.00 | 0.00 | 0.00 | 60 | 1012.1 |
| 20260905183011 | 69 | 81 | 0.0 | 6.0 | 0.00 | 0.00 | 0.00 | 63 | 1011.9 |
| 20260905181512 | 70 | 321 | 1.0 | 5.0 | 0.00 | 0.00 | 0.00 | 61 | 1012.1 |
| 20260905180011 | 69 | 114 | 3.0 | 9.0 | 0.00 | 0.00 | 0.00 | 59 | 1012.1 |
| 20260905174511 | 69 | 173 | 2.0 | 5.0 | 0.00 | 0.00 | 0.00 | 60 | 1012.3 |
| 20260905173010 | 69 | 64 | 1.0 | 6.0 | 0.00 | 0.00 | 0.00 | 61 | 1012.3 |
| 20260905171522 | 70 | 286 | 1.0 | 3.0 | 0.00 | 0.00 | 0.00 | 62 | 1012.3 |
| 20260905170009 | 69 | 68 | 1.0 | 8.0 | 0.00 | 0.00 | 0.00 | 59 | 1012.3 |